Location: Kaltenbach
(49.2000°N, 7.7500°E)
Time: 00:47:44
(UTC+00:00)

STARLINK-1085 - Pass Details

Date: 24 January 2020
Orbit: 348 x 351 km, 53.0° (Epoch: 28 February)

Event Time Altitude Azimuth Distance (km) Brightness Sun altitude
Rises 16:57:07 0° 268° (W) 2,176 8.3 -7.6°
Reaches altitude 10° 16:59:12 10° 276° (W) 1,332 6.8 -7.9°
Maximum altitude 17:02:03 43° 350° (N) 519 3.4 -8.3°
Enters shadow 17:04:33 13° 61° (ENE) 1,196 4.7 -8.7°
